FENGYUN 1C DEB

Satellite information

Favourite Embed

Satellite Type and Status

DEBRISIN ORBIT

Key statistics

Satellite FENGYUN 1C DEB at a glance.

Uptime

9716

Days in orbit

Revolutions

≈ 14.0

Per day

Orbit

SSO

Sun Synchronous Orbit

Inclination

98.7

Latest

Satellite identification and parameters

Extended collection of information and parameters for FENGYUN 1C DEB.

Object identification

Identified? True

Debris? True

Object name: FENGYUN 1C DEB

International designator: 1999-025DL

Object number (NORAD): 29818

Object ID (CCSDS): 29818

Country: PEOPLES REPUBLIC OF CHINA (PRC)

Current information (Y/N): Y

RCS size: MEDIUM

Orbital parameters

Period: 102.527 minutes

Inclination: 98.721 deg

SMA: 7256.385 km

Apoapsis: 961.835 km

Periapsis: 794.664 km

RAAN: 225.5392 deg

Eccentricy: 0.01151889

Argument of periapsis: 21.5362 deg

Mean anomaly: 88.3862 deg

Mean motion: 14.04501853 rev/day

Mean motion (dot): 0.00000301 rev/day2

B* drag term: 0.0002026806 1/REarth

Two-line elements (TLE)

Creation date: Dec. 14, 2025, 6:24 p.m.

Reference frame: TEME

Reference center: EARTH

Epoch: Dec. 14, 2025, 6:50 a.m. UTC

TLE line 0: 0 FENGYUN 1C DEB

TLE line 1: 1 29818U 99025DL 25348.28523046 .00000301 00000-0 20268-3 0 9990

TLE line 2: 2 29818 98.7210 225.5392 0115189 21.5362 88.3862 14.04501853968312

Live tracking on map

Real-time ground track for satellite FENGYUN 1C DEB.

In-orbit conjunctions

A list of the most updated potential collisions computed for object FENGYUN 1C DEB.

Target Orbit TCA Probability of collision Miss distance Type
NIMBUS 2 DEB SSO 2024-11-14 21:23:54 0.0006695803 361.0 (m) DEBRIS
CZ-6A DEB LEO 2024-10-19 21:47:08 0.0001048308 741.0 (m) DEBRIS

Associated space launch

Chinese polar orbiting meteorological satellite

FENGYUN 1C DEB was lifted into orbit during the mission ‘Long March 4B | Feng Yun 1C’, on board a Long March 4B space rocket.

The launch took place on May 10, 1999, 1:33 a.m. from Launch Complex 7.

For more information about the launch, click the button.

Launch to space Long March 4B | Feng Yun 1C
Long March 4B | Feng Yun 1C

Agency: N/A

Status: Launch Successful

Launch date: May 10, 1999, 1:33 a.m. UTC

Rocket: Long March 4B

Launch pad: Launch Complex 7

Location: Taiyuan Satellite Launch Center, People's Republic of China

...

Latest news about this satellite

There are no fresh news available about this satellite. Check back as we update our databases every day.


Newsletter sign-up

Weekly statistics, charts and insights to help you stay on top of the space industry.